Temperature
3 3 3 2 2 1 -0 -1 -2 -3 -3 -3 -3 -3 -4 -4 -5 -5 -6 -6 -6 -7 -7 -8 -7 -7 -7 -7 -7 -7 -7 -6 -6 -5 -4 -0 1 2 2 3 4 5 7
3 3 2 2 1 -0 -2 -2 -3 -3 -4 -4 -4 -5 -5 -5 -6 -6 -6 -7 -7 -8 -8 -8 -8 -8 -8 -8 -8 -8 -8 -7 -7 -6 -5 -4 -1 1 2 2 3 4 5
3 2 2 1 -0 -1 -2 -3 -3 -4 -4 -5 -5 -5 -5 -5 -5 -6 -7 -7 -8 -8 -9 -9 -9 -9 -9 -9 -9 -9 -9 -8 -7 -7 -6 -5 -3 -4 -0 1 1 2 3
2 2 1 -0 -1 -2 -3 -3 -4 -4 -5 -5 -6 -6 -6 -7 -7 -8 -8 -8 -8 -9 -9 -9 -9 -9 -9 -9 -9 -9 -9 -9 -8 -7 -7 -6 -5 -5 -3 -2 -1 0 1
2 1 0 -1 -1 -2 -3 -4 -4 -4 -5 -6 -6 -7 -7 -8 -8 -8 -8 -9 -9 -9 -10 -10 -10 -10 -10 -10 -10 -10 -9 -9 -9 -8 -8 -7 -6 -5 -4 -4 -3 -1 0
1 1 -0 -1 -2 -3 -3 -4 -4 -5 -6 -6 -7 -7 -8 -8 -8 -9 -9 -10 -10 -10 -10 -11 -11 -11 -11 -10 -10 -10 -10 -9 -9 -9 -8 -7 -7 -6 -5 -4 -4 -3 -2
1 0 -0 -2 -3 -3 -4 -4 -5 -5 -6 -7 -7 -8 -8 -9 -9 -10 -10 -11 -11 -11 -11 -11 -11 -11 -11 -11 -11 -11 -10 -10 -9 -9 -8 -8 -7 -6 -6 -5 -5 -4 -3
0 -0 -2 -3 -3 -4 -4 -5 -5 -6 -6 -7 -7 -8 -9 -9 -10 -10 -11 -11 -12 -12 -12 -12 -12 -12 -12 -12 -11 -11 -11 -10 -10 -9 -8 -8 -7 -7 -6 -6 -5 -5 -4
-0 -1 -2 -3 -4 -4 -5 -5 -6 -6 -7 -7 -8 -8 -9 -10 -10 -11 -11 -11 -12 -12 -12 -12 -12 -12 -12 -12 -12 -11 -11 -10 -10 -9 -9 -8 -7 -7 -6 -6 -6 -5 -4
-1 -2 -3 -4 -4 -5 -5 -6 -6 -7 -7 -8 -8 -9 -10 -10 -11 -11 -12 -12 -12 -12 -13 -13 -13 -13 -13 -12 -12 -12 -11 -11 -10 -10 -9 -8 -7 -7 -7 -6 -6 -5 -5
-2 -3 -4 -4 -4 -5 -5 -6 -6 -7 -7 -8 -9 -10 -10 -11 -11 -12 -12 -13 -13 -13 -13 -13 -13 -13 -13 -13 -12 -12 -11 -11 -10 -10 -9 -8 -8 -7 -7 -6 -6 -5 -5
-3 -3 -4 -4 -4 -5 -5 -6 -7 -7 -8 -9 -9 -10 -10 -11 -12 -12 -12 -13 -13 -13 -13 -13 -13 -13 -13 -13 -12 -12 -11 -11 -10 -10 -9 -8 -8 -7 -7 -7 -6 -6 -5
-3 -3 -4 -4 -4 -5 -6 -6 -7 -8 -8 -9 -9 -10 -11 -12 -12 -12 -13 -13 -13 -13 -13 -13 -13 -13 -13 -13 -12 -12 -11 -11 -10 -10 -9 -8 -8 -7 -7 -7 -6 -6 -5
-3 -3 -4 -4 -5 -5 -6 -7 -7 -8 -9 -9 -10 -10 -11 -12 -12 -13 -13 -13 -13 -13 -13 -13 -13 -13 -13 -12 -12 -12 -11 -10 -10 -10 -9 -9 -8 -8 -7 -7 -6 -6 -6
-3 -3 -4 -4 -5 -6 -6 -7 -8 -8 -9 -9 -10 -11 -12 -12 -13 -13 -13 -13 -13 -13 -13 -13 -13 -13 -12 -12 -12 -11 -10 -10 -10 -9 -9 -8 -8 -8 -7 -7 -7 -6 -6
-3 -4 -4 -5 -5 -6 -7 -7 -8 -8 -9 -9 -10 -11 -12 -12 -13 -13 -13 -13 -13 -13 -13 -13 -13 -12 -12 -11 -11 -10 -10 -10 -10 -9 -9 -8 -8 -8 -8 -7 -7 -7 -7
-3 -4 -4 -5 -6 -6 -7 -7 -8 -8 -8 -9 -10 -11 -12 -12 -13 -13 -13 -13 -13 -13 -13 -13 -13 -12 -12 -11 -10 -10 -10 -10 -10 -9 -9 -9 -8 -8 -8 -8 -8 -7 -7
-3 -4 -5 -5 -6 -6 -7 -7 -8 -8 -9 -9 -10 -11 -12 -12 -13 -13 -13 -13 -13 -13 -13 -13 -12 -12 -12 -11 -11 -11 -10 -10 -10 -10 -9 -9 -9 -9 -8 -8 -8 -8 -8
-4 -4 -5 -5 -6 -6 -7 -7 -7 -8 -9 -9 -10 -11 -12 -12 -13 -13 -13 -13 -13 -13 -13 -13 -12 -12 -12 -11 -11 -11 -11 -11 -10 -10 -10 -9 -9 -9 -9 -9 -9 -8 -8
-4 -4 -5 -5 -6 -6 -7 -7 -7 -8 -9 -9 -10 -11 -11 -12 -13 -13 -13 -13 -13 -13 -13 -13 -13 -12 -12 -12 -11 -11 -11 -11 -11 -11 -10 -10 -10 -10 -10 -10 -9 -9 -9
-4 -5 -5 -5 -6 -6 -6 -7 -7 -8 -9 -9 -10 -10 -11 -12 -12 -12 -13 -13 -13 -13 -13 -13 -13 -12 -13 -12 -12 -11 -12 -12 -12 -11 -11 -11 -11 -11 -11 -11 -11 -11 -10
-4 -4 -5 -5 -6 -6 -6 -7 -7 -8 -8 -9 -9 -10 -11 -11 -12 -12 -12 -13 -13 -13 -13 -13 -13 -13 -13 -13 -12 -12 -12 -12 -12 -12 -12 -12 -12 -11 -11 -11 -11 -11 -10
-4 -4 -5 -5 -6 -6 -6 -7 -7 -8 -8 -8 -9 -9 -10 -11 -11 -12 -12 -12 -13 -13 -13 -13 -13 -13 -13 -13 -13 -13 -13 -13 -13 -13 -13 -13 -12 -12 -11 -12 -11 -11 -11
-4 -4 -5 -5 -5 -6 -6 -7 -7 -8 -8 -8 -9 -9 -10 -10 -11 -11 -12 -12 -13 -13 -13 -13 -13 -13 -13 -13 -13 -13 -13 -13 -13 -13 -13 -13 -13 -12 -12 -12 -12 -12 -12
-4 -4 -4 -5 -5 -6 -6 -7 -7 -7 -8 -8 -8 -9 -9 -10 -10 -10 -11 -12 -12 -13 -13 -13 -13 -13 -13 -12 -12 -13 -13 -14 -14 -13 -13 -13 -13 -13 -13 -13 -13 -13 -13
-4 -4 -4 -5 -5 -5 -6 -6 -7 -7 -7 -8 -8 -9 -10 -10 -10 -10 -10 -10 -11 -12 -12 -13 -13 -13 -13 -13 -13 -13 -13 -14 -14 -13 -14 -14 -14 -14 -14 -14 -14 -14 -14
Wind_Speed
6 6 5 5 6 8 8 8 8 9 11 8 9 10 10 9 14 19 21 22 24 24 21 18 17 17 10 12 13 13 13 12 12 13 15 12 11 7 6 7 8 9 10
6 5 5 6 7 6 6 6 7 7 9 8 8 7 6 7 13 15 17 21 23 22 20 19 16 16 11 12 12 13 10 11 11 12 12 7 7 8 10 7 8 9 9
7 4 5 5 4 4 5 8 7 7 10 12 10 10 5 5 6 6 10 19 22 21 20 20 18 17 11 11 12 11 12 12 11 9 7 6 6 12 7 7 7 10 10
6 4 4 3 2 3 5 6 7 7 10 12 9 10 11 8 9 9 8 17 20 20 20 20 18 17 13 10 11 11 11 10 11 10 7 8 9 7 8 7 7 10 11
6 4 2 2 3 4 6 6 7 7 9 11 8 9 8 7 8 9 9 9 14 18 20 19 18 17 14 12 11 12 11 9 10 10 10 11 10 9 8 12 13 12 8
4 3 2 4 5 6 6 7 7 7 8 9 8 9 10 11 12 13 11 10 8 12 18 19 18 17 15 13 12 10 12 11 11 10 9 10 9 9 8 10 14 14 12
3 4 5 6 6 7 7 7 8 8 8 8 9 9 9 10 11 12 11 12 11 10 9 18 16 16 16 16 15 11 11 11 11 10 9 10 10 9 9 10 12 14 12
4 5 5 5 6 7 8 8 9 8 9 9 10 8 8 8 9 11 11 11 10 9 14 18 18 18 18 17 15 9 11 10 11 12 11 10 10 9 9 8 10 12 10
4 5 5 5 6 7 7 8 9 9 10 10 10 9 9 9 11 10 10 9 11 16 18 19 17 17 17 15 12 10 12 12 10 10 11 10 9 8 8 8 8 8 10
3 4 4 5 6 6 7 7 8 9 9 10 10 13 9 11 12 11 12 11 14 17 16 15 14 14 14 14 10 11 11 12 11 10 12 12 9 8 7 7 8 8 9
2 3 4 5 5 6 7 7 8 9 10 10 10 11 10 12 13 10 11 13 13 16 14 14 13 13 13 11 12 12 13 13 13 13 13 13 11 8 7 7 7 7 8
2 1 3 5 6 7 8 8 9 9 10 10 10 11 11 11 12 13 13 15 13 16 16 14 13 14 14 13 13 14 14 13 14 14 13 12 9 9 8 7 8 8 8
1 2 4 5 7 8 8 9 9 10 10 10 11 11 12 12 13 13 13 14 13 13 15 13 14 15 15 14 14 14 14 14 14 13 12 12 10 9 8 8 7 7 7
0 2 4 6 7 8 8 9 10 10 11 11 11 12 13 13 13 12 12 13 13 13 13 13 14 15 16 15 15 14 14 13 12 11 10 9 9 8 8 7 7 6 7
1 4 5 6 7 8 8 9 9 10 11 11 12 12 12 12 12 12 12 12 12 14 13 14 15 15 15 14 16 13 11 10 9 8 8 7 8 10 8 6 6 6 5
2 4 5 7 7 8 8 9 10 11 10 10 11 12 13 13 12 12 12 13 13 13 14 14 15 17 17 24 22 15 9 8 7 7 7 7 7 10 12 13 13 12 9
1 3 5 6 6 7 8 9 10 10 10 10 11 12 12 12 12 13 13 13 12 12 13 14 15 17 21 28 24 23 13 10 8 7 7 7 6 7 6 10 14 14 16
1 2 4 5 5 6 7 8 8 9 9 10 10 11 11 12 11 11 12 11 10 12 11 13 16 17 22 30 25 22 14 10 11 10 8 7 5 7 8 8 9 9 10
2 0 2 3 5 7 8 8 8 8 9 10 11 12 11 11 11 12 12 10 10 9 11 12 14 16 20 29 27 22 10 11 13 14 13 10 9 16 16 11 9 9 10
2 1 2 3 5 7 7 7 8 9 10 11 11 11 11 11 10 11 10 9 9 10 12 13 13 14 15 26 27 21 10 12 12 12 13 17 17 19 18 10 8 10 9
3 2 2 3 5 7 7 7 8 9 10 10 10 10 10 9 9 9 8 10 10 11 11 11 11 11 16 22 26 24 10 11 12 11 11 12 22 21 21 16 11 13 11
2 1 2 4 5 6 6 7 8 9 9 9 9 9 9 9 10 9 9 9 9 9 9 8 10 9 11 17 20 24 20 16 11 10 9 12 21 21 21 16 18 19 15
2 1 2 4 6 6 5 6 8 8 9 9 9 9 9 8 8 8 8 8 8 7 8 7 9 9 9 11 19 20 20 19 11 9 15 17 19 18 15 19 21 17 11
2 0 2 4 5 6 6 6 8 8 8 9 9 9 8 8 8 7 7 7 7 7 7 7 8 8 8 7 6 6 8 12 11 8 12 16 17 14 15 15 13 11 11
2 1 1 3 5 6 6 7 7 8 8 9 9 9 9 8 8 9 7 9 6 10 9 6 6 7 7 10 15 9 6 5 7 7 6 7 8 9 9 9 9 9 10
3 2 2 3 4 5 6 7 6 7 8 9 9 8 7 8 8 8 10 14 14 17 17 15 13 10 13 15 14 13 12 12 12 7 4 5 6 7 7 8 8 8 9
Wind_Direction
117 101 84 72 54 35 24 15 4 358 360 356 356 352 350 346 349 351 352 353 352 349 348 352 347 349 343 338 338 335 332 334 333 327 324 305 289 287 317 321 324 336 341
107 92 67 49 43 27 5 7 1 355 356 351 344 341 330 327 338 338 346 350 349 348 351 349 346 345 340 337 337 334 334 331 337 332 327 321 314 341 326 323 329 342 341
114 97 61 48 33 11 359 13 360 351 350 348 347 345 333 323 337 337 344 345 345 345 346 343 343 341 338 334 332 332 335 329 329 331 322 322 326 326 305 323 332 340 337
111 100 74 50 24 358 3 7 355 347 347 350 351 351 351 344 336 335 331 334 338 340 342 340 341 338 334 329 329 336 325 324 325 324 314 311 308 307 311 315 329 335 332
116 103 89 63 32 13 8 357 348 343 345 348 346 342 339 329 327 329 328 328 332 336 337 338 339 335 331 326 323 324 323 322 317 319 319 314 308 293 300 307 319 324 325
114 96 55 39 21 8 359 350 347 343 342 344 340 337 336 333 335 336 334 334 330 330 331 335 334 330 327 325 322 321 320 317 315 317 315 313 310 310 308 305 312 314 319
100 57 35 22 8 359 351 346 348 344 343 342 340 335 335 332 331 332 333 333 333 331 323 331 327 325 323 323 323 319 319 314 314 313 312 309 301 300 303 303 305 308 313
72 52 35 18 0 353 348 347 349 345 343 344 339 333 336 335 332 329 329 328 327 322 322 325 322 320 321 323 320 316 314 315 311 311 309 305 302 296 296 298 305 306 306
66 47 26 13 360 351 348 346 347 345 344 343 338 339 338 332 329 325 323 323 323 326 326 323 320 318 318 317 316 313 312 310 305 306 305 304 298 294 290 293 294 295 300
65 39 15 1 351 346 342 345 346 343 338 339 340 346 331 328 326 324 323 321 321 323 322 322 321 318 316 315 313 312 308 308 306 307 306 304 298 293 290 291 292 289 288
83 25 356 346 343 343 344 346 345 343 340 338 334 332 328 327 325 322 321 320 319 322 322 321 320 318 316 314 313 311 308 307 308 308 308 304 298 292 293 294 295 295 290
102 11 344 344 348 348 346 346 343 341 337 335 334 331 328 326 326 324 322 322 321 322 322 321 319 319 318 314 310 308 309 304 305 306 309 309 307 302 298 296 296 295 292
111 341 347 352 349 346 345 343 341 338 336 336 335 332 331 330 329 326 324 325 324 324 323 323 321 318 315 312 306 301 300 299 298 299 303 304 305 303 302 300 299 299 299
247 348 356 351 346 344 342 339 337 337 340 339 336 335 333 331 328 326 327 328 329 328 328 326 323 321 318 311 302 299 297 297 296 296 300 303 304 303 306 309 312 313 310
350 5 1 349 344 344 340 337 336 337 338 337 337 335 331 329 329 330 330 331 332 336 331 331 329 327 324 314 308 305 306 301 302 305 307 310 325 339 347 357 358 353 351
7 4 358 349 345 341 336 336 336 335 334 334 333 333 334 335 336 335 337 336 335 333 335 335 334 333 333 332 342 355 345 335 327 325 326 327 341 356 6 15 21 23 22
32 4 349 338 335 331 329 330 328 328 333 332 333 335 336 338 338 341 342 339 336 336 338 337 339 338 337 349 5 12 10 7 1 351 348 351 2 17 11 22 30 26 25
109 348 338 333 328 323 325 324 325 330 332 332 334 337 338 337 337 340 341 338 334 338 339 338 342 343 344 357 10 18 14 15 13 8 360 5 22 42 50 41 34 24 18
152 170 328 319 322 326 326 328 331 333 336 340 340 339 339 339 340 343 340 336 333 336 341 344 342 344 345 358 17 28 16 16 15 14 18 34 43 53 51 40 32 24 13
129 87 355 340 337 328 330 335 336 338 342 340 336 335 338 337 337 338 334 332 334 339 342 343 342 342 344 359 16 32 25 20 20 19 18 32 46 48 47 36 26 27 9
123 82 21 350 327 322 333 339 337 337 332 331 332 334 335 332 337 334 329 331 337 337 335 337 338 340 352 0 12 28 34 27 23 26 22 27 38 40 39 37 29 27 19
120 55 13 344 325 327 339 338 334 324 325 329 331 330 329 334 345 329 326 327 330 330 330 335 341 344 346 0 10 22 30 36 26 22 21 27 34 34 33 32 27 25 21
144 50 358 335 327 331 336 331 321 322 328 331 330 325 326 324 327 322 320 324 328 331 338 341 343 343 346 350 11 20 25 28 29 20 27 31 34 31 27 26 26 23 18
164 314 351 344 331 327 330 318 315 322 328 329 326 326 326 327 324 325 328 328 327 327 332 340 339 335 336 334 349 4 21 26 29 22 23 27 30 31 26 24 20 17 18
182 221 309 310 313 320 322 322 322 325 329 327 327 327 331 325 325 331 328 332 320 337 342 326 321 333 331 348 6 15 14 17 29 24 15 16 18 20 17 17 16 14 14
195 237 281 301 311 319 318 317 316 321 327 335 334 329 329 331 331 327 329 337 343 343 345 343 341 335 341 347 356 2 6 14 21 29 13 14 14 15 13 12 10 11 12
Height
1618 1616 1614 1611 1608 1604 1598 1592 1586 1580 1573 1567 1561 1555 1550 1546 1541 1536 1531 1525 1520 1514 1509 1504 1499 1494 1489 1484 1480 1475 1470 1465 1461 1454 1446 1441 1441 1440 1439 1439 1438 1438 1439
1617 1615 1613 1610 1606 1602 1596 1590 1584 1578 1572 1566 1561 1555 1550 1545 1539 1534 1529 1523 1517 1512 1507 1501 1496 1491 1485 1481 1476 1472 1467 1463 1460 1456 1449 1442 1437 1435 1434 1434 1433 1433 1434
1616 1614 1611 1608 1604 1599 1593 1588 1582 1577 1571 1565 1559 1553 1547 1541 1535 1529 1525 1520 1515 1509 1504 1499 1493 1488 1483 1478 1473 1470 1466 1461 1458 1457 1455 1449 1442 1435 1428 1429 1429 1429 1428
1615 1612 1610 1606 1602 1597 1592 1587 1581 1575 1569 1563 1557 1550 1544 1538 1532 1527 1522 1517 1512 1506 1501 1496 1490 1485 1480 1475 1471 1468 1464 1460 1456 1453 1452 1451 1447 1442 1432 1425 1425 1425 1425
1613 1611 1608 1604 1600 1596 1591 1585 1580 1574 1568 1562 1556 1549 1543 1537 1531 1525 1519 1513 1508 1503 1498 1492 1487 1482 1477 1472 1468 1464 1461 1458 1455 1451 1449 1446 1444 1441 1437 1428 1422 1421 1421
1612 1609 1607 1603 1599 1594 1589 1583 1578 1572 1566 1560 1554 1548 1541 1535 1528 1521 1515 1509 1504 1499 1494 1489 1484 1479 1474 1469 1464 1461 1457 1454 1451 1448 1445 1443 1441 1438 1435 1430 1424 1419 1417
1610 1608 1605 1601 1597 1592 1587 1581 1575 1570 1564 1558 1552 1546 1539 1533 1526 1519 1513 1506 1500 1495 1490 1485 1480 1475 1470 1465 1461 1457 1453 1450 1447 1444 1441 1439 1437 1435 1433 1429 1424 1419 1415
1609 1606 1603 1599 1595 1590 1585 1579 1573 1568 1562 1555 1549 1543 1537 1530 1524 1518 1511 1505 1498 1492 1487 1482 1476 1471 1467 1462 1457 1453 1449 1446 1443 1440 1437 1434 1432 1431 1429 1427 1424 1418 1414
1608 1605 1602 1598 1593 1588 1583 1578 1572 1566 1560 1553 1547 1541 1534 1528 1521 1515 1509 1502 1496 1490 1484 1478 1473 1467 1463 1458 1453 1449 1445 1442 1439 1436 1433 1430 1428 1426 1425 1423 1422 1420 1414
1606 1604 1600 1596 1592 1587 1582 1576 1570 1564 1558 1552 1545 1539 1532 1526 1519 1512 1506 1499 1493 1487 1480 1474 1469 1463 1458 1454 1449 1445 1441 1438 1434 1431 1428 1426 1424 1422 1421 1419 1417 1416 1414
1605 1602 1598 1594 1590 1585 1580 1574 1568 1562 1556 1549 1543 1536 1529 1523 1516 1510 1503 1497 1490 1484 1478 1471 1465 1460 1454 1449 1445 1440 1437 1433 1430 1427 1424 1422 1420 1418 1417 1415 1413 1411 1410
1603 1600 1597 1593 1588 1583 1578 1573 1567 1560 1554 1547 1541 1534 1527 1520 1514 1507 1501 1495 1488 1482 1475 1469 1463 1457 1451 1445 1440 1436 1433 1429 1426 1423 1420 1418 1416 1415 1413 1411 1409 1407 1406
1601 1598 1594 1590 1586 1581 1576 1571 1565 1559 1552 1546 1538 1531 1525 1518 1512 1506 1499 1493 1486 1479 1473 1466 1460 1453 1447 1441 1436 1432 1428 1425 1422 1419 1417 1415 1413 1411 1410 1408 1406 1404 1402
1599 1596 1592 1588 1584 1580 1575 1570 1564 1558 1551 1544 1537 1530 1524 1517 1511 1504 1498 1491 1484 1478 1471 1464 1458 1451 1443 1437 1432 1428 1424 1420 1418 1416 1414 1413 1411 1409 1407 1405 1403 1401 1399
1596 1593 1590 1586 1583 1578 1574 1568 1562 1556 1549 1542 1536 1529 1523 1517 1510 1503 1497 1490 1484 1477 1470 1463 1456 1448 1440 1433 1428 1424 1420 1416 1414 1413 1411 1410 1409 1407 1406 1404 1401 1399 1397
1593 1591 1588 1585 1581 1577 1572 1566 1561 1555 1548 1542 1535 1529 1522 1516 1509 1503 1496 1489 1483 1476 1469 1462 1455 1447 1438 1431 1425 1421 1417 1414 1412 1411 1409 1408 1407 1406 1404 1402 1400 1398 1396
1591 1589 1587 1584 1580 1576 1571 1566 1560 1554 1548 1541 1535 1528 1522 1515 1509 1503 1496 1489 1483 1476 1469 1462 1455 1447 1439 1432 1427 1422 1418 1415 1412 1411 1409 1407 1406 1405 1403 1402 1400 1398 1396
1590 1588 1585 1582 1579 1575 1570 1565 1560 1553 1547 1541 1534 1528 1521 1515 1509 1503 1496 1490 1484 1477 1471 1464 1457 1450 1442 1436 1429 1424 1421 1417 1414 1412 1410 1407 1406 1405 1404 1402 1400 1398 1395
1588 1586 1583 1580 1577 1573 1569 1564 1558 1553 1546 1540 1534 1527 1521 1515 1509 1503 1497 1491 1485 1479 1473 1467 1460 1453 1446 1440 1435 1429 1425 1421 1418 1415 1412 1411 1409 1408 1406 1404 1401 1398 1396
1585 1584 1581 1578 1575 1572 1568 1563 1557 1551 1545 1540 1534 1528 1522 1516 1510 1504 1498 1492 1487 1481 1475 1469 1464 1457 1451 1445 1440 1435 1430 1426 1423 1419 1416 1415 1414 1411 1409 1405 1403 1399 1397
1583 1581 1579 1577 1573 1570 1566 1561 1556 1551 1546 1540 1535 1529 1523 1516 1511 1505 1499 1494 1488 1483 1477 1472 1466 1461 1455 1450 1445 1440 1435 1431 1428 1424 1421 1419 1417 1415 1412 1408 1405 1403 1399
1581 1580 1578 1575 1572 1568 1565 1561 1556 1551 1546 1541 1535 1529 1523 1517 1511 1505 1499 1494 1488 1483 1478 1473 1468 1463 1458 1453 1450 1445 1441 1437 1433 1430 1426 1424 1420 1417 1414 1411 1408 1404 1401
1579 1578 1576 1574 1571 1567 1563 1559 1555 1550 1546 1540 1535 1529 1524 1518 1512 1505 1499 1494 1489 1483 1479 1474 1469 1465 1461 1456 1452 1448 1444 1440 1436 1433 1431 1427 1423 1419 1416 1413 1410 1406 1402
1577 1576 1574 1572 1569 1566 1562 1558 1554 1550 1545 1540 1534 1529 1523 1517 1512 1506 1500 1494 1489 1484 1480 1475 1470 1466 1462 1458 1454 1450 1446 1442 1438 1435 1432 1429 1425 1422 1418 1415 1411 1408 1405
1575 1574 1572 1570 1567 1564 1561 1557 1553 1548 1544 1539 1534 1528 1523 1517 1512 1506 1501 1495 1490 1486 1481 1476 1472 1467 1463 1460 1457 1453 1449 1445 1441 1437 1434 1430 1426 1423 1420 1417 1414 1411 1408
1572 1571 1570 1568 1566 1563 1559 1556 1552 1547 1542 1537 1532 1527 1522 1517 1512 1506 1501 1497 1491 1486 1481 1477 1472 1468 1465 1460 1457 1454 1450 1447 1443 1439 1435 1432 1429 1426 1423 1420 1417 1414 1411